Time,TemperatureF,DewpointF,PressureIn,WindDirection,WindDirectionDegrees,WindSpeedMPH,WindSpeedGustMPH,Humidity,HourlyPrecipIn,Conditions,Clouds,dailyrainin,SoftwareType,DateUTC
2014-01-10 00:02:00,27.1,26.0,30.28,SSE,149,5.0,7.0,94,0.00,,,0.00,weatherlink.com 1.10,2014-01-10 05:02:00,
2014-01-10 00:17:00,27.2,26.0,30.27,SE,129,3.0,6.0,94,0.00,,,0.00,weatherlink.com 1.10,2014-01-10 05:17:00,
2014-01-10 00:32:00,27.4,26.0,30.27,SSW,197,1.0,5.0,94,0.00,,,0.00,weatherlink.com 1.10,2014-01-10 05:32:00,
2014-01-10 00:47:00,27.7,26.0,30.26,SSE,155,3.0,6.0,94,0.00,,,0.00,weatherlink.com 1.10,2014-01-10 05:47:00,
2014-01-10 01:02:00,28.0,27.0,30.26,South,172,3.0,6.0,94,0.00,,,0.00,weatherlink.com 1.10,2014-01-10 06:02:00,
2014-01-10 01:17:00,28.2,27.0,30.25,ESE,122,3.0,6.0,94,0.00,,,0.00,weatherlink.com 1.10,2014-01-10 06:17:00,
2014-01-10 01:32:00,28.2,27.0,30.25,SE,125,2.0,7.0,94,0.00,,,0.00,weatherlink.com 1.10,2014-01-10 06:32:00,
2014-01-10 01:47:00,28.5,27.0,30.24,SE,128,4.0,6.0,94,0.00,,,0.00,weatherlink.com 1.10,2014-01-10 06:47:00,
2014-01-10 02:02:00,28.7,27.0,30.24,SE,143,3.0,6.0,94,0.00,,,0.00,weatherlink.com 1.10,2014-01-10 07:02:00,
2014-01-10 02:17:00,28.8,27.0,30.24,ESE,120,1.0,4.0,94,0.00,,,0.00,weatherlink.com 1.10,2014-01-10 07:17:00,
2014-01-10 02:32:00,29.0,28.0,30.24,SE,136,4.0,4.0,94,0.00,,,0.00,weatherlink.com 1.10,2014-01-10 07:32:00,
2014-01-10 02:47:00,29.2,28.0,30.24,SE,127,0.0,4.0,94,0.00,,,0.00,weatherlink.com 1.10,2014-01-10 07:47:00,
2014-01-10 03:02:00,29.5,28.0,30.23,SE,128,2.0,5.0,94,0.00,,,0.00,weatherlink.com 1.10,2014-01-10 08:02:00,
2014-01-10 03:17:00,29.6,28.0,30.23,ESE,113,2.0,4.0,94,0.00,,,0.00,weatherlink.com 1.10,2014-01-10 08:17:00,
2014-01-10 03:32:00,29.9,28.0,30.23,SE,143,2.0,4.0,94,0.00,,,0.00,weatherlink.com 1.10,2014-01-10 08:32:00,
2014-01-10 03:47:00,30.1,29.0,30.22,SSE,149,2.0,3.0,95,0.00,,,0.00,weatherlink.com 1.10,2014-01-10 08:47:00,
2014-01-10 04:02:00,30.5,29.0,30.22,SSE,156,0.0,5.0,95,0.00,,,0.00,weatherlink.com 1.10,2014-01-10 09:02:00,
2014-01-10 04:17:00,30.8,30.0,30.21,SE,145,1.0,5.0,95,0.00,,,0.00,weatherlink.com 1.10,2014-01-10 09:17:00,
2014-01-10 04:32:00,31.0,30.0,30.21,SSE,148,1.0,5.0,95,0.00,,,0.00,weatherlink.com 1.10,2014-01-10 09:32:00,
2014-01-10 04:47:00,31.1,30.0,30.20,SSE,160,1.0,4.0,95,0.00,,,0.00,weatherlink.com 1.10,2014-01-10 09:47:00,
2014-01-10 05:02:00,31.2,30.0,30.20,SSE,163,2.0,4.0,95,0.00,,,0.00,weatherlink.com 1.10,2014-01-10 10:02:00,
2014-01-10 05:17:00,31.3,30.0,30.19,SE,135,2.0,5.0,95,0.00,,,0.00,weatherlink.com 1.10,2014-01-10 10:17:00,
2014-01-10 05:47:00,31.5,30.0,30.18,SSE,162,3.0,4.0,95,0.00,,,0.00,weatherlink.com 1.10,2014-01-10 10:47:00,
2014-01-10 06:02:00,31.7,31.0,30.18,SSE,167,2.0,5.0,95,0.00,,,0.00,weatherlink.com 1.10,2014-01-10 11:02:00,
2014-01-10 06:17:00,32.0,31.0,30.18,SSE,148,3.0,4.0,95,0.00,,,0.00,weatherlink.com 1.10,2014-01-10 11:17:00,
2014-01-10 06:32:00,32.2,31.0,30.18,SE,135,6.0,7.0,96,0.00,,,0.00,weatherlink.com 1.10,2014-01-10 11:32:00,
2014-01-10 06:47:00,32.4,31.0,30.18,SE,146,4.0,7.0,96,0.00,,,0.00,weatherlink.com 1.10,2014-01-10 11:47:00,
2014-01-10 07:02:00,32.6,32.0,30.18,SSE,158,3.0,8.0,96,0.00,,,0.00,weatherlink.com 1.10,2014-01-10 12:02:00,
2014-01-10 07:32:00,32.6,32.0,30.18,South,183,4.0,5.0,96,0.00,,,0.00,weatherlink.com 1.10,2014-01-10 12:32:00,
2014-01-10 07:47:00,32.6,32.0,30.18,SE,141,3.0,7.0,96,0.00,,,0.00,weatherlink.com 1.10,2014-01-10 12:47:00,
2014-01-10 08:03:00,32.6,32.0,30.17,South,184,1.0,6.0,96,0.00,,,0.00,weatherlink.com 1.10,2014-01-10 13:03:00,
2014-01-10 08:18:00,32.6,32.0,30.17,SSE,160,4.0,4.0,96,0.00,,,0.00,weatherlink.com 1.10,2014-01-10 13:18:00,
2014-01-10 08:33:00,32.6,32.0,30.17,SSE,152,1.0,5.0,96,0.00,,,0.00,weatherlink.com 1.10,2014-01-10 13:33:00,
2014-01-10 08:48:00,32.7,32.0,30.18,SSE,155,3.0,7.0,96,0.00,,,0.00,weatherlink.com 1.10,2014-01-10 13:48:00,
2014-01-10 09:03:00,32.8,32.0,30.16,SE,141,3.0,5.0,96,0.00,,,0.00,weatherlink.com 1.10,2014-01-10 14:03:00,
2014-01-10 09:18:00,32.9,32.0,30.16,SSW,193,1.0,6.0,96,0.00,,,0.00,weatherlink.com 1.10,2014-01-10 14:18:00,
2014-01-10 09:33:00,33.1,32.0,30.17,SE,145,2.0,8.0,96,0.00,,,0.00,weatherlink.com 1.10,2014-01-10 14:33:00,
2014-01-10 09:48:00,33.2,32.0,30.16,SSE,167,2.0,8.0,96,0.00,,,0.00,weatherlink.com 1.10,2014-01-10 14:48:00,
2014-01-10 10:03:00,33.3,32.0,30.16,ESE,122,2.0,7.0,96,0.00,,,0.00,weatherlink.com 1.10,2014-01-10 15:03:00,
2014-01-10 10:18:00,33.6,33.0,30.16,SE,144,3.0,7.0,96,0.00,,,0.00,weatherlink.com 1.10,2014-01-10 15:18:00,
2014-01-10 10:33:00,34.0,33.0,30.14,East,95,3.0,8.0,96,0.00,,,0.00,weatherlink.com 1.10,2014-01-10 15:33:00,
2014-01-10 10:48:00,34.4,33.0,30.15,SE,145,3.0,8.0,96,0.00,,,0.00,weatherlink.com 1.10,2014-01-10 15:48:00,
2014-01-10 11:03:00,34.6,34.0,30.14,SSE,159,4.0,9.0,96,0.00,,,0.00,weatherlink.com 1.10,2014-01-10 16:03:00,
2014-01-10 11:19:00,34.8,34.0,30.13,SE,144,6.0,9.0,96,0.00,,,0.00,weatherlink.com 1.10,2014-01-10 16:19:00,
2014-01-10 11:33:00,34.8,34.0,30.11,SE,127,4.0,10.0,95,0.00,,,0.00,weatherlink.com 1.10,2014-01-10 16:33:00,
2014-01-10 11:48:00,35.0,34.0,30.11,SE,145,3.0,10.0,95,0.02,,,0.02,weatherlink.com 1.10,2014-01-10 16:48:00,
2014-01-10 12:03:00,35.1,34.0,30.11,SSE,152,3.0,9.0,95,0.03,,,0.03,weatherlink.com 1.10,2014-01-10 17:03:00,
2014-01-10 12:18:00,35.2,34.0,30.08,SE,133,3.0,9.0,95,0.05,,,0.05,weatherlink.com 1.10,2014-01-10 17:18:00,
2014-01-10 12:33:00,35.5,34.0,30.06,SE,135,2.0,8.0,95,0.06,,,0.06,weatherlink.com 1.10,2014-01-10 17:33:00,
2014-01-10 12:48:00,36.0,35.0,30.04,SE,124,6.0,9.0,95,0.05,,,0.07,weatherlink.com 1.10,2014-01-10 17:48:00,
2014-01-10 13:03:00,36.6,35.0,30.02,ESE,122,4.0,10.0,95,0.05,,,0.09,weatherlink.com 1.10,2014-01-10 18:03:00,
2014-01-10 13:18:00,37.1,36.0,30.01,SE,139,4.0,10.0,94,0.05,,,0.10,weatherlink.com 1.10,2014-01-10 18:18:00,
2014-01-10 13:33:00,37.3,36.0,30.00,East,100,3.0,9.0,94,0.05,,,0.11,weatherlink.com 1.10,2014-01-10 18:33:00,
2014-01-10 13:48:00,37.5,36.0,29.98,ESE,115,4.0,12.0,93,0.04,,,0.11,weatherlink.com 1.10,2014-01-10 18:48:00,
2014-01-10 14:03:00,37.7,36.0,29.97,ENE,58,0.0,8.0,93,0.03,,,0.12,weatherlink.com 1.10,2014-01-10 19:03:00,
2014-01-10 14:18:00,37.9,36.0,29.96,SSE,162,3.0,13.0,92,0.02,,,0.12,weatherlink.com 1.10,2014-01-10 19:18:00,
2014-01-10 14:33:00,38.0,36.0,29.96,ESE,106,2.0,7.0,92,0.01,,,0.12,weatherlink.com 1.10,2014-01-10 19:33:00,
2014-01-10 14:48:00,38.1,36.0,29.95,SE,129,1.0,7.0,92,0.01,,,0.12,weatherlink.com 1.10,2014-01-10 19:48:00,
2014-01-10 15:04:00,38.4,36.0,29.93,SSE,155,1.0,7.0,91,0.00,,,0.12,weatherlink.com 1.10,2014-01-10 20:04:00,
2014-01-10 15:19:00,38.5,36.0,29.92,SE,129,2.0,7.0,91,0.00,,,0.12,weatherlink.com 1.10,2014-01-10 20:19:00,
2014-01-10 15:34:00,38.5,36.0,29.91,ESE,107,4.0,10.0,91,0.00,,,0.12,weatherlink.com 1.10,2014-01-10 20:34:00,
2014-01-10 15:49:00,38.7,36.0,29.91,SE,142,5.0,10.0,91,0.00,,,0.12,weatherlink.com 1.10,2014-01-10 20:49:00,
2014-01-10 16:04:00,38.9,37.0,29.90,SE,132,2.0,11.0,91,0.00,,,0.12,weatherlink.com 1.10,2014-01-10 21:04:00,
2014-01-10 16:19:00,38.7,37.0,29.90,ESE,115,2.0,9.0,92,0.00,,,0.12,weatherlink.com 1.10,2014-01-10 21:19:00,
2014-01-10 16:34:00,38.8,37.0,29.89,SE,142,4.0,8.0,92,0.00,,,0.12,weatherlink.com 1.10,2014-01-10 21:34:00,
2014-01-10 16:49:00,38.9,37.0,29.88,SE,142,4.0,11.0,93,0.00,,,0.12,weatherlink.com 1.10,2014-01-10 21:49:00,
2014-01-10 17:04:00,39.2,38.0,29.87,SE,133,3.0,12.0,94,0.00,,,0.12,weatherlink.com 1.10,2014-01-10 22:04:00,
2014-01-10 17:19:00,39.3,38.0,29.87,SE,141,9.0,12.0,94,0.00,,,0.12,weatherlink.com 1.10,2014-01-10 22:19:00,
2014-01-10 17:34:00,39.0,38.0,29.87,ESE,113,8.0,13.0,94,0.01,,,0.13,weatherlink.com 1.10,2014-01-10 22:34:00,
2014-01-10 17:49:00,38.8,37.0,29.86,SE,134,2.0,13.0,94,0.02,,,0.14,weatherlink.com 1.10,2014-01-10 22:49:00,
2014-01-10 18:04:00,38.8,38.0,29.85,SSE,159,5.0,11.0,95,0.03,,,0.15,weatherlink.com 1.10,2014-01-10 23:04:00,
2014-01-10 18:19:00,38.9,38.0,29.84,SE,136,4.0,12.0,95,0.04,,,0.16,weatherlink.com 1.10,2014-01-10 23:19:00,
2014-01-10 18:49:00,38.7,37.0,29.84,ESE,115,6.0,8.0,95,0.06,,,0.20,weatherlink.com 1.10,2014-01-10 23:49:00,
2014-01-10 19:04:00,38.5,37.0,29.84,ESE,120,6.0,8.0,95,0.07,,,0.22,weatherlink.com 1.10,2014-01-11 00:04:00,
2014-01-10 19:19:00,38.6,38.0,29.83,ESE,120,2.0,8.0,96,0.08,,,0.24,weatherlink.com 1.10,2014-01-11 00:19:00,
2014-01-10 19:34:00,39.2,38.0,29.82,ESE,117,12.0,12.0,96,0.07,,,0.25,weatherlink.com 1.10,2014-01-11 00:34:00,
2014-01-10 19:49:00,39.7,39.0,29.82,ESE,122,1.0,11.0,96,0.07,,,0.27,weatherlink.com 1.10,2014-01-11 00:49:00,
2014-01-10 20:04:00,40.1,39.0,29.81,SE,146,5.0,15.0,96,0.07,,,0.29,weatherlink.com 1.10,2014-01-11 01:04:00,
2014-01-10 20:19:00,40.3,39.0,29.79,SE,136,3.0,13.0,96,0.07,,,0.31,weatherlink.com 1.10,2014-01-11 01:19:00,
2014-01-10 20:34:00,40.4,39.0,29.77,SE,144,4.0,13.0,96,0.09,,,0.34,weatherlink.com 1.10,2014-01-11 01:34:00,
2014-01-10 20:49:00,40.7,40.0,29.76,SE,135,4.0,15.0,97,0.09,,,0.36,weatherlink.com 1.10,2014-01-11 01:49:00,
2014-01-10 21:04:00,41.0,40.0,29.75,SE,142,9.0,13.0,97,0.11,,,0.40,weatherlink.com 1.10,2014-01-11 02:04:00,
2014-01-10 21:19:00,41.4,41.0,29.74,South,191,8.0,13.0,97,0.12,,,0.43,weatherlink.com 1.10,2014-01-11 02:19:00,
2014-01-10 21:34:00,41.4,40.0,29.73,SSE,167,4.0,13.0,96,0.11,,,0.45,weatherlink.com 1.10,2014-01-11 02:34:00,
2014-01-10 21:49:00,41.3,40.0,29.71,SE,129,5.0,12.0,96,0.09,,,0.46,weatherlink.com 1.10,2014-01-11 02:49:00,
2014-01-10 22:05:00,41.1,40.0,29.68,South,169,7.0,12.0,96,0.07,,,0.47,weatherlink.com 1.10,2014-01-11 03:05:00,
2014-01-10 22:20:00,41.2,40.0,29.68,ESE,119,9.0,12.0,97,0.05,,,0.48,weatherlink.com 1.10,2014-01-11 03:20:00,
2014-01-10 22:35:00,41.2,40.0,29.67,ESE,116,7.0,12.0,97,0.03,,,0.48,weatherlink.com 1.10,2014-01-11 03:35:00,
2014-01-10 22:50:00,41.0,40.0,29.67,SE,129,8.0,11.0,96,0.03,,,0.49,weatherlink.com 1.10,2014-01-11 03:50:00,
2014-01-10 23:05:00,41.0,40.0,29.67,SSE,154,8.0,12.0,97,0.03,,,0.50,weatherlink.com 1.10,2014-01-11 04:05:00,
2014-01-10 23:20:00,41.6,41.0,29.66,SE,125,9.0,16.0,97,0.03,,,0.51,weatherlink.com 1.10,2014-01-11 04:20:00,
2014-01-10 23:35:00,41.7,41.0,29.65,SSE,152,6.0,15.0,97,0.03,,,0.51,weatherlink.com 1.10,2014-01-11 04:35:00,
2014-01-10 23:50:00,42.0,41.0,29.65,SE,135,6.0,14.0,97,0.03,,,0.52,weatherlink.com 1.10,2014-01-11 04:50:00,